PulseSat

PulseSat

COSMOS 2471 (701K)

Last updated on March 3, 2019, 3:10 a.m. UTC

1 37372U 11009A   19061.65340421 -.00000027  00000-0  00000+0 0  9994
2 37372  65.6943  43.6112 0009906 242.4552 265.5376  2.13107552 62336
UTC
Height (km)
Latitude
Longitude
Inclination
Orbital Period

Next 30 passes for location: Hong Kong

Rise time Rise Azimuth (degrees) Set time Set Azimuth (degrees) Duration Max altitude (degrees)

No matching passes for this satellites

PulseSat

PulseSat is the new satellites software and hardware trackering solution by Pulsely.
Satellite Two Line Element Set source: US Air Force Space Command

Download PulseSat for iOS
© 2017 Pulsely Limited